Location: Makanda
(37.6176°N, 89.2090°W)
Time: 23:20:41
(UTC+00:00)

Cosmos 1666 - Pass Details

Date: 23 September 2019
Orbit: 498 x 521 km, 82.5° (Epoch: 17 October)

Event Time Altitude Azimuth Distance (km) Brightness Sun altitude
Rises 10:20:47 0° 350° (N) 2,608 6.3 -17.4°
Reaches altitude 10° 10:22:55 10° 348° (NNW) 1,722 5.4 -17.0°
Maximum altitude 10:26:40 69° 265° (W) 545 2.5 -16.3°
Drops below altitude 10° 10:30:25 10° 182° (S) 1,722 5.2 -15.5°
Sets 10:32:32 0° 179° (S) 2,607 6.2 -15.1°
